Time,TemperatureF,DewpointF,PressureIn,WindDirection,WindDirectionDegrees,WindSpeedMPH,WindSpeedGustMPH,Humidity,HourlyPrecipIn,Conditions,Clouds,dailyrainin,SoftwareType,DateUTC
2013-03-31 00:01:00,61.2,58.0,30.18,ENE,77,0.0,3.0,88,0.00,,,0.00,weatherlink.com 1.10,2013-03-31 04:01:00,
2013-03-31 00:16:00,60.7,57.0,30.18,SSE,155,1.0,3.0,87,0.00,,,0.00,weatherlink.com 1.10,2013-03-31 04:16:00,
2013-03-31 00:31:00,60.8,56.0,30.17,East,82,2.0,3.0,84,0.00,,,0.00,weatherlink.com 1.10,2013-03-31 04:31:00,
2013-03-31 01:01:00,60.5,55.0,30.17,SSW,193,0.0,3.0,82,0.00,,,0.00,weatherlink.com 1.10,2013-03-31 05:01:00,
2013-03-31 02:01:00,59.7,54.0,30.15,SSE,152,0.0,1.0,82,0.00,,,0.00,weatherlink.com 1.10,2013-03-31 06:01:00,
2013-03-31 02:16:00,59.9,54.0,30.15,SW,219,1.0,2.0,82,0.00,,,0.00,weatherlink.com 1.10,2013-03-31 06:16:00,
2013-03-31 03:01:00,60.4,55.0,30.14,South,173,0.0,1.0,82,0.00,,,0.00,weatherlink.com 1.10,2013-03-31 07:01:00,
2013-03-31 03:16:00,60.2,55.0,30.14,ESE,121,0.0,2.0,82,0.00,,,0.00,weatherlink.com 1.10,2013-03-31 07:16:00,
2013-03-31 03:31:00,60.2,54.0,30.14,South,177,0.0,1.0,81,0.00,,,0.00,weatherlink.com 1.10,2013-03-31 07:31:00,
2013-03-31 03:46:00,60.1,55.0,30.14,SSE,160,1.0,2.0,82,0.00,,,0.00,weatherlink.com 1.10,2013-03-31 07:46:00,
2013-03-31 04:01:00,60.0,55.0,30.13,SE,143,0.0,2.0,83,0.00,,,0.00,weatherlink.com 1.10,2013-03-31 08:01:00,
2013-03-31 04:16:00,59.8,55.0,30.12,SW,224,1.0,2.0,83,0.00,,,0.00,weatherlink.com 1.10,2013-03-31 08:16:00,
2013-03-31 04:32:00,59.7,55.0,30.12,SW,224,1.0,3.0,83,0.00,,,0.00,weatherlink.com 1.10,2013-03-31 08:32:00,
2013-03-31 04:46:00,59.9,55.0,30.12,SSE,155,0.0,2.0,84,0.00,,,0.00,weatherlink.com 1.10,2013-03-31 08:46:00,
2013-03-31 05:01:00,59.9,55.0,30.12,SSE,162,1.0,3.0,84,0.00,,,0.00,weatherlink.com 1.10,2013-03-31 09:01:00,
2013-03-31 05:16:00,59.8,55.0,30.12,SSE,167,1.0,3.0,83,0.00,,,0.00,weatherlink.com 1.10,2013-03-31 09:16:00,
2013-03-31 05:31:00,59.5,54.0,30.11,ESE,122,0.0,4.0,83,0.00,,,0.00,weatherlink.com 1.10,2013-03-31 09:31:00,
2013-03-31 06:01:00,60.1,54.0,30.11,SSW,195,1.0,4.0,81,0.00,,,0.00,weatherlink.com 1.10,2013-03-31 10:01:00,
2013-03-31 06:16:00,60.6,55.0,30.12,SSW,210,1.0,5.0,82,0.00,,,0.00,weatherlink.com 1.10,2013-03-31 10:16:00,
2013-03-31 06:31:00,61.6,56.0,30.12,SSW,193,3.0,8.0,82,0.00,,,0.00,weatherlink.com 1.10,2013-03-31 10:31:00,
2013-03-31 06:46:00,61.8,56.0,30.13,SSE,154,3.0,5.0,81,0.00,,,0.00,weatherlink.com 1.10,2013-03-31 10:46:00,
2013-03-31 07:01:00,62.0,56.0,30.13,SSE,158,1.0,5.0,82,0.00,,,0.00,weatherlink.com 1.10,2013-03-31 11:01:00,
2013-03-31 07:16:00,61.9,56.0,30.14,SE,141,1.0,2.0,82,0.00,,,0.00,weatherlink.com 1.10,2013-03-31 11:16:00,
2013-03-31 07:31:00,61.6,56.0,30.15,SE,127,0.0,2.0,83,0.00,,,0.00,weatherlink.com 1.10,2013-03-31 11:31:00,
2013-03-31 07:46:00,61.8,57.0,30.15,ESE,113,1.0,3.0,83,0.00,,,0.00,weatherlink.com 1.10,2013-03-31 11:46:00,
2013-03-31 08:02:00,62.9,57.0,30.16,SSE,160,1.0,3.0,82,0.00,,,0.00,weatherlink.com 1.10,2013-03-31 12:02:00,
2013-03-31 08:16:00,64.0,57.0,30.15,SSE,155,1.0,5.0,79,0.00,,,0.00,weatherlink.com 1.10,2013-03-31 12:16:00,
2013-03-31 08:31:00,64.2,58.0,30.16,South,172,0.0,4.0,79,0.00,,,0.00,weatherlink.com 1.10,2013-03-31 12:31:00,
2013-03-31 08:47:00,65.3,58.0,30.16,SSE,150,3.0,5.0,77,0.00,,,0.00,weatherlink.com 1.10,2013-03-31 12:47:00,
2013-03-31 09:02:00,66.8,58.0,30.16,SSW,201,2.0,4.0,74,0.00,,,0.00,weatherlink.com 1.10,2013-03-31 13:02:00,
2013-03-31 09:17:00,67.6,59.0,30.16,SSW,193,5.0,6.0,73,0.00,,,0.00,weatherlink.com 1.10,2013-03-31 13:17:00,
2013-03-31 09:32:00,68.5,59.0,30.16,SSE,154,3.0,8.0,72,0.00,,,0.00,weatherlink.com 1.10,2013-03-31 13:32:00,
2013-03-31 09:47:00,69.5,59.0,30.16,SSW,205,2.0,7.0,70,0.00,,,0.00,weatherlink.com 1.10,2013-03-31 13:47:00,
2013-03-31 10:02:00,70.6,60.0,30.16,South,187,2.0,6.0,68,0.00,,,0.00,weatherlink.com 1.10,2013-03-31 14:02:00,
2013-03-31 10:17:00,71.4,60.0,30.16,South,179,3.0,8.0,67,0.00,,,0.00,weatherlink.com 1.10,2013-03-31 14:17:00,
2013-03-31 10:32:00,72.4,59.0,30.16,SSW,198,7.0,8.0,64,0.00,,,0.00,weatherlink.com 1.10,2013-03-31 14:32:00,
2013-03-31 10:47:00,73.1,60.0,30.16,South,187,7.0,7.0,64,0.00,,,0.00,weatherlink.com 1.10,2013-03-31 14:47:00,
2013-03-31 11:02:00,73.3,60.0,30.16,SSW,203,6.0,10.0,63,0.00,,,0.00,weatherlink.com 1.10,2013-03-31 15:02:00,
2013-03-31 11:17:00,74.5,61.0,30.15,SE,146,3.0,7.0,62,0.00,,,0.00,weatherlink.com 1.10,2013-03-31 15:17:00,
2013-03-31 11:32:00,74.3,60.0,30.16,SSW,207,4.0,9.0,62,0.00,,,0.00,weatherlink.com 1.10,2013-03-31 15:32:00,
2013-03-31 11:47:00,74.2,60.0,30.15,SW,224,6.0,12.0,61,0.00,,,0.00,weatherlink.com 1.10,2013-03-31 15:47:00,
2013-03-31 12:03:00,74.7,60.0,30.15,South,176,7.0,11.0,60,0.00,,,0.00,weatherlink.com 1.10,2013-03-31 16:03:00,
2013-03-31 12:17:00,74.5,60.0,30.15,SSW,205,8.0,12.0,60,0.00,,,0.00,weatherlink.com 1.10,2013-03-31 16:17:00,
2013-03-31 12:32:00,74.8,59.0,30.15,SE,136,5.0,12.0,59,0.00,,,0.00,weatherlink.com 1.10,2013-03-31 16:32:00,
2013-03-31 12:47:00,74.8,60.0,30.15,SSW,194,8.0,13.0,60,0.00,,,0.00,weatherlink.com 1.10,2013-03-31 16:47:00,
2013-03-31 13:02:00,74.9,59.0,30.14,SW,224,9.0,10.0,59,0.00,,,0.00,weatherlink.com 1.10,2013-03-31 17:02:00,
2013-03-31 13:17:00,73.9,60.0,30.13,South,171,5.0,10.0,62,0.00,,,0.00,weatherlink.com 1.10,2013-03-31 17:17:00,
2013-03-31 13:32:00,73.4,60.0,30.12,SSE,167,3.0,13.0,64,0.00,,,0.00,weatherlink.com 1.10,2013-03-31 17:32:00,
2013-03-31 13:47:00,74.5,61.0,30.12,SW,214,6.0,14.0,62,0.00,,,0.00,weatherlink.com 1.10,2013-03-31 17:47:00,
2013-03-31 14:02:00,75.7,61.0,30.11,South,184,6.0,14.0,60,0.00,,,0.00,weatherlink.com 1.10,2013-03-31 18:02:00,
2013-03-31 14:17:00,75.5,60.0,30.10,SSE,166,10.0,12.0,59,0.00,,,0.00,weatherlink.com 1.10,2013-03-31 18:17:00,
2013-03-31 14:32:00,76.2,60.0,30.10,South,176,5.0,13.0,57,0.00,,,0.00,weatherlink.com 1.10,2013-03-31 18:32:00,
2013-03-31 14:47:00,77.0,60.0,30.09,SW,230,5.0,9.0,57,0.00,,,0.00,weatherlink.com 1.10,2013-03-31 18:47:00,
2013-03-31 15:02:00,76.4,60.0,30.08,South,170,5.0,11.0,58,0.00,,,0.00,weatherlink.com 1.10,2013-03-31 19:02:00,
2013-03-31 15:18:00,76.3,61.0,30.07,SSE,158,5.0,13.0,60,0.00,,,0.00,weatherlink.com 1.10,2013-03-31 19:18:00,
2013-03-31 15:33:00,76.2,61.0,30.07,South,177,8.0,12.0,60,0.00,,,0.00,weatherlink.com 1.10,2013-03-31 19:33:00,
2013-03-31 15:48:00,75.8,61.0,30.06,South,188,11.0,14.0,60,0.00,,,0.00,weatherlink.com 1.10,2013-03-31 19:48:00,
2013-03-31 16:03:00,74.5,61.0,30.06,SSW,197,4.0,12.0,63,0.00,,,0.00,weatherlink.com 1.10,2013-03-31 20:03:00,
2013-03-31 16:18:00,74.3,62.0,30.05,SSW,204,6.0,13.0,66,0.00,,,0.00,weatherlink.com 1.10,2013-03-31 20:18:00,
2013-03-31 16:33:00,74.3,62.0,30.05,SSW,194,9.0,12.0,66,0.00,,,0.00,weatherlink.com 1.10,2013-03-31 20:33:00,
2013-03-31 16:48:00,74.0,62.0,30.05,SW,214,5.0,10.0,67,0.00,,,0.00,weatherlink.com 1.10,2013-03-31 20:48:00,
2013-03-31 17:03:00,74.4,62.0,30.04,SSW,200,6.0,13.0,66,0.00,,,0.00,weatherlink.com 1.10,2013-03-31 21:03:00,
2013-03-31 17:18:00,73.9,62.0,30.05,South,183,6.0,13.0,67,0.00,,,0.00,weatherlink.com 1.10,2013-03-31 21:18:00,
2013-03-31 17:33:00,73.8,63.0,30.04,South,180,10.0,16.0,69,0.00,,,0.00,weatherlink.com 1.10,2013-03-31 21:33:00,
2013-03-31 17:48:00,73.3,63.0,30.04,SW,224,4.0,14.0,71,0.00,,,0.00,weatherlink.com 1.10,2013-03-31 21:48:00,
2013-03-31 18:03:00,72.4,63.0,30.04,SW,217,6.0,12.0,73,0.00,,,0.00,weatherlink.com 1.10,2013-03-31 22:03:00,
2013-03-31 18:18:00,72.6,64.0,30.04,SSE,158,4.0,12.0,74,0.00,,,0.00,weatherlink.com 1.10,2013-03-31 22:18:00,
2013-03-31 18:33:00,72.0,64.0,30.04,SSW,197,9.0,12.0,75,0.00,,,0.00,weatherlink.com 1.10,2013-03-31 22:33:00,
2013-03-31 18:48:00,71.3,64.0,30.04,SW,217,6.0,11.0,77,0.00,,,0.00,weatherlink.com 1.10,2013-03-31 22:48:00,
2013-03-31 19:03:00,71.0,64.0,30.04,SW,222,7.0,10.0,78,0.00,,,0.00,weatherlink.com 1.10,2013-03-31 23:03:00,
2013-03-31 19:18:00,70.1,64.0,30.04,SW,217,5.0,8.0,80,0.00,,,0.00,weatherlink.com 1.10,2013-03-31 23:18:00,
2013-03-31 19:33:00,69.1,63.0,30.03,SSW,212,3.0,5.0,82,0.00,,,0.00,weatherlink.com 1.10,2013-03-31 23:33:00,
2013-03-31 19:48:00,68.4,63.0,30.03,SW,218,1.0,4.0,84,0.00,,,0.00,weatherlink.com 1.10,2013-03-31 23:48:00,
2013-03-31 20:03:00,67.8,64.0,30.03,SW,233,1.0,4.0,86,0.00,,,0.00,weatherlink.com 1.10,2013-04-01 00:03:00,
2013-03-31 20:18:00,67.3,63.0,30.03,SSW,200,2.0,5.0,87,0.00,,,0.00,weatherlink.com 1.10,2013-04-01 00:18:00,
2013-03-31 20:33:00,67.2,64.0,30.02,SSW,203,1.0,4.0,88,0.00,,,0.00,weatherlink.com 1.10,2013-04-01 00:33:00,
2013-03-31 20:48:00,67.1,64.0,30.03,South,179,1.0,5.0,88,0.00,,,0.00,weatherlink.com 1.10,2013-04-01 00:48:00,
2013-03-31 21:03:00,66.7,63.0,30.03,SSE,167,1.0,3.0,89,0.00,,,0.00,weatherlink.com 1.10,2013-04-01 01:03:00,
2013-03-31 21:18:00,66.5,63.0,30.03,SSW,205,0.0,3.0,89,0.00,,,0.00,weatherlink.com 1.10,2013-04-01 01:18:00,
2013-03-31 21:48:00,66.4,64.0,30.03,SSW,205,3.0,4.0,90,0.00,,,0.00,weatherlink.com 1.10,2013-04-01 01:48:00,
2013-03-31 22:03:00,66.5,63.0,30.04,SSW,212,1.0,3.0,89,0.00,,,0.00,weatherlink.com 1.10,2013-04-01 02:03:00,
2013-03-31 22:18:00,66.5,64.0,30.04,SSW,205,2.0,4.0,90,0.00,,,0.00,weatherlink.com 1.10,2013-04-01 02:18:00,
2013-03-31 22:33:00,66.9,64.0,30.04,SSW,208,1.0,5.0,89,0.00,,,0.00,weatherlink.com 1.10,2013-04-01 02:33:00,
2013-03-31 22:48:00,67.1,64.0,30.05,SW,224,3.0,4.0,88,0.00,,,0.00,weatherlink.com 1.10,2013-04-01 02:48:00,
2013-03-31 23:03:00,67.1,64.0,30.04,SW,215,3.0,5.0,88,0.00,,,0.00,weatherlink.com 1.10,2013-04-01 03:03:00,
2013-03-31 23:18:00,67.0,63.0,30.04,SW,232,2.0,5.0,88,0.00,,,0.00,weatherlink.com 1.10,2013-04-01 03:18:00,
2013-03-31 23:33:00,66.8,64.0,30.04,SSW,205,4.0,5.0,89,0.00,,,0.00,weatherlink.com 1.10,2013-04-01 03:33:00,
2013-03-31 23:48:00,66.8,64.0,30.04,SW,225,2.0,6.0,89,0.00,,,0.00,weatherlink.com 1.10,2013-04-01 03:48:00,